Owosso, MI

1:28 PM EDT on March 26, 2017 (GMT -0400)
Owosso

Weather History for KRNP - February, 2013

Change the Weather History Date:

Sunday, February 3, 2013

  Actual Average (KFNT) Record (KFNT)
Temperature  
Mean Temperature 12 °F -  
Max Temperature 21 °F 28 °F 55 °F (2016)
Min Temperature 2 °F 15 °F -11 °F (1996)
Degree Days  
Heating Degree Days 54    
Moisture  
Dew Point 7 °F    
Average Humidity 76    
Maximum Humidity 88    
Minimum Humidity 55    
Precipitation  
Precipitation 0.00 in - - ()
Sea Level Pressure  
Sea Level Pressure 29.91 in    
Wind  
Wind Speed 4 mph (WSW)    
Max Wind Speed 20 mph    
Max Gust Speed 24 mph    
Visibility 8 miles    
Events Snow    
Averages and records for this station are not official NWS values.
T = Trace of Precipitation, MM = Missing Value Source: NWS Daily Summary

Daily Weather History Graph

Daily Weather History Graph

Search for Another Location

Airport or City:

Trip Planner

Search our weather history database for the weather conditions in past years. The results will help you decide how hot, cold, wet, or windy it might be!

Date:

Astronomy

Feb. 03, 2013 Rise Set
Actual Time 7:49 AM EST 5:52 PM EST
Civil Twilight 7:19 AM EST 6:22 PM EST
Nautical Twilight 6:45 AM EST 6:56 PM EST
Astronomical Twilight 6:12 AM EST 7:29 PM EST
Moon 1:16 AM EST (2/3) 11:27 AM EST (2/3)
Length of Visible Light 11h 03m
Length of Day
10h 03m
Waning Gibbous, 49% of the Moon is Illuminated
Feb 3
Waning Gibbous
Feb 10
New
Feb 17
First Quarter
Feb 25
Full
Mar 4
Last Quarter

Hourly Weather History & Observations

Time (EST) Temp. Windchill Dew Point Humidity Pressure Visibility Wind Dir Wind Speed Gust Speed Precip Events Conditions
12:15 AM 3.7 °F - -0.4 °F 83% 29.99 in 10.0 mi Calm Calm - N/A   Clear
12:40 AM 4.1 °F - -0.2 °F 82% 29.99 in 10.0 mi Calm Calm - N/A   Clear
12:55 AM 5.0 °F - 1.2 °F 84% 29.99 in 10.0 mi Calm Calm - N/A   Clear
1:15 AM 4.8 °F - 0.5 °F 82% 29.98 in 10.0 mi Calm Calm - N/A   Mostly Cloudy
1:35 AM 4.8 °F - 0.5 °F 82% 29.98 in 10.0 mi Calm Calm - N/A   Mostly Cloudy
1:55 AM 5.0 °F - 1.2 °F 84% 29.97 in 10.0 mi Calm Calm - N/A   Mostly Cloudy
2:15 AM 5.9 °F - 2.1 °F 84% 29.97 in 10.0 mi Calm Calm - N/A   Mostly Cloudy
2:35 AM 6.8 °F - 3.0 °F 84% 29.97 in 10.0 mi Calm Calm - N/A   Overcast
2:55 AM 7.3 °F - 3.9 °F 86% 29.97 in 10.0 mi Calm Calm - N/A   Overcast
3:15 AM 7.0 °F - 2.8 °F 83% 29.96 in 10.0 mi Calm Calm - N/A   Scattered Clouds
3:35 AM 4.5 °F - 0.5 °F 84% 29.94 in 10.0 mi Calm Calm - N/A   Clear
3:55 AM 3.0 °F - -1.3 °F 82% 29.94 in 10.0 mi Calm Calm - N/A   Clear
4:15 AM 3.2 °F - -0.9 °F 83% 29.93 in 10.0 mi Calm Calm - N/A   Clear
4:55 AM 2.3 °F - -1.7 °F 84% 29.92 in 10.0 mi Calm Calm - N/A   Scattered Clouds
5:15 AM 2.8 °F - -1.5 °F 82% 29.92 in 10.0 mi Calm Calm - N/A   Clear
5:34 AM 2.1 °F - -2.2 °F 82% 29.92 in 10.0 mi Calm Calm - N/A   Clear
5:55 AM 2.3 °F - -2.2 °F 81% 29.91 in 10.0 mi Calm Calm - N/A   Clear
6:15 AM 2.5 °F - -1.7 °F 83% 29.91 in 10.0 mi Calm Calm - N/A   Scattered Clouds
6:34 AM 3.9 °F - -0.2 °F 83% 29.90 in 10.0 mi Calm Calm - N/A   Overcast
6:55 AM 5.2 °F - 1.4 °F 84% 29.90 in 10.0 mi Calm Calm - N/A   Overcast
7:15 AM 6.1 °F - 2.3 °F 84% 29.89 in 10.0 mi Calm Calm - N/A   Overcast
7:35 AM 7.3 °F - 3.7 °F 85% 29.89 in 10.0 mi Calm Calm - N/A   Overcast
7:55 AM 8.1 °F - 4.6 °F 86% 29.89 in 10.0 mi Calm Calm - N/A   Overcast
8:14 AM 7.5 °F - 3.7 °F 85% 29.90 in 10.0 mi Calm Calm - N/A   Overcast
8:35 AM 7.9 °F - 4.6 °F 87% 29.90 in 10.0 mi Calm Calm - N/A   Mostly Cloudy
8:55 AM 9.3 °F 1.0 °F 5.9 °F 86% 29.90 in 10.0 mi SSW 4.6 mph - N/A   Overcast
9:14 AM 10.0 °F - 6.8 °F 87% 29.90 in 10.0 mi Calm Calm - N/A   Overcast
9:35 AM 10.4 °F 4.0 °F 7.3 °F 87% 29.89 in 4.0 mi South 3.5 mph - N/A   Overcast
9:55 AM 11.5 °F 3.5 °F 8.4 °F 87% 29.89 in 4.0 mi SSW 4.6 mph - N/A Snow Light Snow
10:14 AM 12.9 °F 3.8 °F 9.7 °F 87% 29.88 in 5.0 mi SW 5.8 mph - N/A   Mostly Cloudy
10:35 AM 13.8 °F 3.7 °F 10.9 °F 88% 29.87 in 10.0 mi SSW 6.9 mph - N/A   Mostly Cloudy
10:55 AM 14.4 °F 6.9 °F 11.5 °F 88% 29.87 in 7.0 mi SSW 4.6 mph - N/A   Overcast
11:14 AM 15.1 °F 7.7 °F 12.2 °F 88% 29.87 in 4.0 mi SSW 4.6 mph - N/A Snow Light Snow
11:35 AM 15.8 °F 6.1 °F 12.2 °F 86% 29.87 in 3.0 mi South 6.9 mph - N/A Snow Light Snow
11:55 AM 17.4 °F 9.1 °F 12.9 °F 83% 29.86 in 3.0 mi SSW 5.8 mph - N/A Snow Light Snow
12:15 PM 18.0 °F 11.1 °F 12.4 °F 79% 29.85 in 2.5 mi SSW 4.6 mph - N/A Snow Light Snow
12:35 PM 18.9 °F 8.8 °F 12.7 °F 77% 29.83 in 3.0 mi SSW 8.1 mph - N/A Snow Light Snow
12:54 PM 19.9 °F 9.3 °F 13.1 °F 75% 29.83 in 4.0 mi WSW 9.2 mph - N/A Snow Light Snow
1:15 PM 20.3 °F 8.3 °F 12.9 °F 73% 29.83 in 5.0 mi WSW 11.5 mph - N/A Snow Light Snow
1:35 PM 20.8 °F 9.7 °F 13.1 °F 72% 29.83 in 5.0 mi West 10.4 mph - N/A Snow Light Snow
1:54 PM 21.0 °F 9.3 °F 13.1 °F 71% 29.82 in 5.0 mi West 11.5 mph - N/A Snow Light Snow
2:15 PM 21.2 °F 7.3 °F 12.0 °F 68% 29.83 in 7.0 mi West 16.1 mph 19.6 mph N/A   Overcast
2:35 PM 21.2 °F 8.9 °F 12.6 °F 69% 29.82 in 5.0 mi West 12.7 mph - N/A Snow Light Snow
2:54 PM 20.8 °F 9.0 °F 12.7 °F 71% 29.83 in 4.0 mi West 11.5 mph 17.3 mph N/A Snow Light Snow
3:15 PM 20.8 °F 9.0 °F 12.7 °F 71% 29.84 in 4.0 mi West 11.5 mph - N/A Snow Light Snow
3:35 PM 20.8 °F 9.7 °F 12.6 °F 70% 29.84 in 7.0 mi West 10.4 mph 18.4 mph N/A Snow Light Snow
3:54 PM 20.8 °F 9.7 °F 13.3 °F 73% 29.85 in 2.5 mi West 10.4 mph - N/A Snow Light Snow
4:15 PM 20.7 °F 9.5 °F 14.0 °F 75% 29.85 in 4.0 mi West 10.4 mph - N/A Snow Light Snow
4:35 PM 20.5 °F 8.6 °F 14.0 °F 76% 29.86 in 3.0 mi West 11.5 mph 17.3 mph N/A Snow Light Snow
4:55 PM 20.3 °F 7.7 °F 14.0 °F 77% 29.87 in 2.5 mi West 12.7 mph 17.3 mph N/A Snow Light Snow
5:35 PM 20.1 °F 4.6 °F 12.0 °F 71% 29.88 in 5.0 mi West 19.6 mph 24.2 mph N/A Snow Light Snow
5:55 PM 19.4 °F 5.5 °F 10.4 °F 68% 29.89 in 3.0 mi West 15.0 mph 20.7 mph N/A   Haze
6:15 PM 19.2 °F 4.7 °F 7.5 °F 60% 29.90 in 10.0 mi West 16.1 mph 24.2 mph N/A   Overcast
6:35 PM 18.5 °F 3.8 °F 5.7 °F 58% 29.92 in 10.0 mi WNW 16.1 mph 23.0 mph N/A   Overcast
6:55 PM 18.5 °F 6.8 °F 5.0 °F 56% 29.92 in 10.0 mi WNW 10.4 mph 20.7 mph N/A   Overcast
7:14 PM 18.5 °F 6.8 °F 5.2 °F 56% 29.93 in 10.0 mi West 10.4 mph 19.6 mph N/A   Overcast
7:35 PM 18.0 °F 6.1 °F 4.3 °F 55% 29.94 in 10.0 mi West 10.4 mph - N/A   Mostly Cloudy
7:55 PM 17.2 °F 6.8 °F 4.6 °F 58% 29.94 in 10.0 mi West 8.1 mph - N/A   Overcast
8:14 PM 16.7 °F 6.2 °F 5.0 °F 60% 29.94 in 10.0 mi West 8.1 mph - N/A   Mostly Cloudy
8:35 PM 16.7 °F 5.3 °F 5.7 °F 62% 29.94 in 10.0 mi West 9.2 mph - N/A   Overcast
8:55 PM 17.2 °F 7.8 °F 7.2 °F 65% 29.96 in 10.0 mi West 6.9 mph - N/A   Overcast
9:14 PM 17.6 °F 6.4 °F 8.6 °F 68% 29.96 in 10.0 mi West 9.2 mph - N/A   Overcast
9:35 PM 18.0 °F 6.9 °F 9.0 °F 68% 29.97 in 10.0 mi WSW 9.2 mph - N/A   Overcast
9:55 PM 17.6 °F 5.7 °F 8.4 °F 67% 29.97 in 10.0 mi West 10.4 mph - N/A   Overcast
10:14 PM 17.6 °F 6.4 °F 8.4 °F 67% 29.97 in 10.0 mi WSW 9.2 mph - N/A   Overcast
10:35 PM 17.1 °F 5.8 °F 7.7 °F 67% 29.97 in 10.0 mi West 9.2 mph - N/A   Mostly Cloudy
10:54 PM 16.5 °F 5.1 °F 7.7 °F 68% 29.97 in 10.0 mi WSW 9.2 mph - N/A   Scattered Clouds
11:15 PM 15.8 °F 6.1 °F 7.7 °F 70% 29.97 in 10.0 mi WSW 6.9 mph - N/A   Scattered Clouds
11:34 PM 15.1 °F 5.2 °F 7.5 °F 72% 29.97 in 10.0 mi WSW 6.9 mph - N/A   Clear
11:55 PM 14.5 °F 5.7 °F 7.7 °F 74% 29.97 in 10.0 mi WSW 5.8 mph - N/A   Scattered Clouds